NVS-01 (IRNSS-1J)

Last updated on Sun Jan 18 2026 00:02:49 GMT+0000 (Coordinated Universal Time)

1 56759U 23076A 26017.57704925 -.00000318 00000+0 00000+0 0 9996 2 56759 2.5310 250.2977 0008374 28.3390 175.6397 1.00269629 9602
UTC large
Height (km)
Speed (km/s)
/
Latitude / Longitude
Inclination (degrees)
Orbital Period (minutes)
Azimuth
Elevation
Range (km)
Doppler Factor

Next 0 passes for location: London (51.5072 / 0.1276)

Sorry there are no passes over London.